Regional Weather Roundup
Issued by NWS

Home | Current Version | Previous Version | Graphics & Text | Print | Product List | Glossary On
Versions: 1 2 3 4 5 6 7 8 9 10 11 12 13 14 15 16 17 18 19 20 21 22 23 24 25 26 27 28 29 30 31 32 33 34 35 36 37 38 39 40 41 42 43 44 45 46 47 48 49 50
000
ASUS43 KTOP 240359
RWRKS

WEATHER ROUNDUP FOR KANSAS
NATIONAL WEATHER SERVICE GOODLAND KS
1100 PM CDT TUE MAY 23 2017

NOTE:  "FAIR" INDICATES FEW OR NO CLOUDS BELOW 12,000 FEET WITH NO
SIGNIFICANT WEATHER AND/OR OBSTRUCTIONS TO VISIBILITY.

KSZ001>006-013>018-027>032-041>047-240500-
NORTHWEST KANSAS

CITY           SKY/WX    TMP DP  RH WIND       PRES   REMARKS
GOODLAND       CLEAR     43  37  79 N7        30.02R
HAYS           CLEAR     47  40  76 NW6       29.97R
HILL CITY      CLEAR     44  39  82 NW5       29.98R
RUSSELL        CLEAR     50  42  74 N9        29.94R
$$

KSZ061>065-074>080-084>089-240500-
SOUTHWEST KANSAS

CITY           SKY/WX    TMP DP  RH WIND       PRES   REMARKS
DODGE CITY     CLEAR     46  39  76 N7        29.99R
ELKHART          N/A     51  32  48 NW1         N/A
GARDEN CITY    CLEAR     46  36  68 N8        30.00R
GREAT BEND     CLEAR     47  43  86 NW7       29.95S
LIBERAL        CLEAR     47  40  76 NW6       30.02R
$$

KSZ066>073-081>083-090>101-240500-
SOUTHEAST KANSAS

CITY           SKY/WX    TMP DP  RH WIND       PRES   REMARKS
CHANUTE        CLOUDY    56  46  69 NW10      29.84R
COFFEYVILLE    CLOUDY    56  49  77 NW7       29.84S
HUTCHINSON     CLOUDY    56  42  59 N14       29.91S
MEDICINE LODGE   N/A     50  41  71 N8        29.93R
NEWTON         CLOUDY    52  47  83 NW8       29.90S
PARSONS        CLOUDY    56  49  77 NW10      29.85R
WICHITA INTL   MOCLDY    56  46  69 NW13      29.89S
WICHITA JABRA  LGT RAIN  54  45  71 N20       29.89S
WICHITA MCCONL CLOUDY    57  42  58 N12       29.88S
WINFIELD       PTCLDY    51  44  77 NW6       29.89S
$$

KSZ007>012-019>026-033>040-048>060-102>105-240500-
NORTHEAST KANSAS

CITY           SKY/WX    TMP DP  RH WIND       PRES   REMARKS
CONCORDIA      CLOUDY    52  45  77 NW8       29.90S
EMPORIA        CLOUDY    53  46  77 NW7       29.86R
LAWRENCE       CLOUDY    55  48  77 NW13      29.82S
MANHATTAN      CLOUDY    54  45  71 VRB5      29.87S
OLATHE IND     CLOUDY    53  51  93 NW7       29.81S
OLATHE EXE     CLOUDY    53  52  96 NW7       29.80S
SALINA         CLOUDY    56  44  64 NW9       29.91S
TOPEKA BILLARD CLOUDY    54  48  80 NW9       29.83S
TOPEKA FORBES  CLOUDY    54  48  80 NW13      29.83S
$$




USA.gov is the U.S. government's official web portal to all federal, state and local government web resources and services.